TimeEDT,TemperatureF,Dew PointF,Humidity,Sea Level PressureIn,VisibilityMPH,Wind Direction,Wind SpeedMPH,Gust SpeedMPH,PrecipitationIn,Events,Conditions,WindDirDegrees,DateUTC
12:53 AM,68.0,51.1,55,30.14,10.0,ENE,11.5,-,N/A,,Mostly Cloudy,70,2013-03-10 05:53:00
1:53 AM,68.0,50.0,52,30.13,10.0,East,9.2,-,N/A,,Mostly Cloudy,90,2013-03-10 06:53:00
3:53 AM,68.0,51.1,55,30.11,10.0,ENE,9.2,-,N/A,,Mostly Cloudy,70,2013-03-10 07:53:00
4:53 AM,66.9,51.1,57,30.08,10.0,East,12.7,-,N/A,,Mostly Cloudy,90,2013-03-10 08:53:00
5:53 AM,66.0,51.1,59,30.11,10.0,East,9.2,-,N/A,,Mostly Cloudy,100,2013-03-10 09:53:00
6:53 AM,68.0,51.1,55,30.10,10.0,East,11.5,-,N/A,,Mostly Cloudy,90,2013-03-10 10:53:00
7:53 AM,66.9,50.0,54,30.12,10.0,East,11.5,-,N/A,,Mostly Cloudy,90,2013-03-10 11:53:00
8:53 AM,68.0,50.0,52,30.14,10.0,East,10.4,-,N/A,,Mostly Cloudy,90,2013-03-10 12:53:00
9:53 AM,70.0,53.1,55,30.14,10.0,East,12.7,-,N/A,,Mostly Cloudy,90,2013-03-10 13:53:00
10:53 AM,73.0,52.0,48,30.16,10.0,East,18.4,-,N/A,,Scattered Clouds,100,2013-03-10 14:53:00
11:53 AM,73.9,53.1,48,30.15,10.0,East,12.7,-,N/A,,Scattered Clouds,80,2013-03-10 15:53:00
12:53 PM,75.0,52.0,44,30.14,10.0,East,15.0,21.9,N/A,,Scattered Clouds,90,2013-03-10 16:53:00
1:53 PM,75.0,53.1,46,30.11,10.0,East,15.0,19.6,N/A,,Scattered Clouds,90,2013-03-10 17:53:00
2:53 PM,73.9,54.0,50,30.10,10.0,ESE,15.0,20.7,N/A,,Scattered Clouds,110,2013-03-10 18:53:00
3:53 PM,75.0,54.0,48,30.09,10.0,ESE,15.0,-,N/A,,Scattered Clouds,110,2013-03-10 19:53:00
4:53 PM,73.0,53.1,49,30.08,10.0,East,12.7,-,N/A,,Mostly Cloudy,90,2013-03-10 20:53:00
5:53 PM,72.0,54.0,53,30.09,10.0,ENE,13.8,-,N/A,,Mostly Cloudy,70,2013-03-10 21:53:00
6:53 PM,72.0,55.0,55,30.09,10.0,East,13.8,-,N/A,,Mostly Cloudy,100,2013-03-10 22:53:00
7:53 PM,70.0,55.9,61,30.09,10.0,East,12.7,-,N/A,,Mostly Cloudy,90,2013-03-10 23:53:00
8:53 PM,70.0,55.9,61,30.10,10.0,East,12.7,-,N/A,,Mostly Cloudy,90,2013-03-11 00:53:00
9:53 PM,70.0,57.0,63,30.11,10.0,East,15.0,20.7,N/A,,Mostly Cloudy,80,2013-03-11 01:53:00
10:53 PM,70.0,57.0,63,30.13,10.0,East,12.7,-,N/A,,Mostly Cloudy,80,2013-03-11 02:53:00
11:53 PM,70.0,57.0,63,30.12,10.0,East,16.1,-,0.00,,Overcast,100,2013-03-11 03:53:00
12:53 AM,69.1,57.0,65,30.10,10.0,East,17.3,20.7,N/A,,Scattered Clouds,90,2013-03-11 04:53:00